Year,Month,Day,Hour,Minute,Value (Times are PST for temperature in C)
2020,12,06,00,00,6.80
2020,12,06,00,01,6.80
2020,12,06,00,02,6.80
2020,12,06,00,03,6.80
2020,12,06,00,04,6.80
2020,12,06,00,05,6.80
2020,12,06,00,06,6.80
2020,12,06,00,07,6.80
2020,12,06,00,08,6.80
2020,12,06,00,09,6.80
2020,12,06,00,10,6.70
2020,12,06,00,11,6.70
2020,12,06,00,12,6.70
2020,12,06,00,13,6.70
2020,12,06,00,14,6.60
2020,12,06,00,15,6.60
2020,12,06,00,16,6.60
2020,12,06,00,17,6.60
2020,12,06,00,18,6.50
2020,12,06,00,19,6.50
2020,12,06,00,20,6.40
2020,12,06,00,21,6.40
2020,12,06,00,22,6.40
2020,12,06,00,23,6.40
2020,12,06,00,24,6.40
2020,12,06,00,25,6.40
2020,12,06,00,26,6.40
2020,12,06,00,27,6.30
2020,12,06,00,28,6.30
2020,12,06,00,29,6.30
2020,12,06,00,30,6.20
2020,12,06,00,31,6.20
2020,12,06,00,32,6.20
2020,12,06,00,33,6.20
2020,12,06,00,34,6.20
2020,12,06,00,35,6.20
2020,12,06,00,36,6.20
2020,12,06,00,37,6.20
2020,12,06,00,38,6.20
2020,12,06,00,39,6.10
2020,12,06,00,40,6.10
2020,12,06,00,41,6.10
2020,12,06,00,42,6.10
2020,12,06,00,43,6.00
2020,12,06,00,44,6.00
2020,12,06,00,45,5.90
2020,12,06,00,46,5.90
2020,12,06,00,47,5.80
2020,12,06,00,48,5.80
2020,12,06,00,49,5.90
2020,12,06,00,50,5.90
2020,12,06,00,51,5.80
2020,12,06,00,52,5.80
2020,12,06,00,53,5.80
2020,12,06,00,54,5.80
2020,12,06,00,55,5.80
2020,12,06,00,56,5.80
2020,12,06,00,57,5.80
2020,12,06,00,58,5.90
2020,12,06,00,59,5.90
2020,12,06,01,00,5.90
2020,12,06,01,01,5.90
2020,12,06,01,02,5.90
2020,12,06,01,03,5.90
2020,12,06,01,04,5.90
2020,12,06,01,05,5.90
2020,12,06,01,06,5.90
2020,12,06,01,07,5.90
2020,12,06,01,08,5.80
2020,12,06,01,09,5.80
2020,12,06,01,10,5.80
2020,12,06,01,11,5.80
2020,12,06,01,12,5.80
2020,12,06,01,13,5.80
2020,12,06,01,14,5.80
2020,12,06,01,15,5.90
2020,12,06,01,16,5.80
2020,12,06,01,17,5.80
2020,12,06,01,18,5.80
2020,12,06,01,19,5.80
2020,12,06,01,20,5.80
2020,12,06,01,21,5.80
2020,12,06,01,22,5.70
2020,12,06,01,23,5.70
2020,12,06,01,24,5.70
2020,12,06,01,25,5.70
2020,12,06,01,26,5.70
2020,12,06,01,27,5.60
2020,12,06,01,28,5.60
2020,12,06,01,29,5.60
2020,12,06,01,30,5.60
2020,12,06,01,31,5.50
2020,12,06,01,32,5.50
2020,12,06,01,33,5.40
2020,12,06,01,34,5.40
2020,12,06,01,35,5.40
2020,12,06,01,36,5.50
2020,12,06,01,37,5.50
2020,12,06,01,38,5.50
2020,12,06,01,39,5.50
2020,12,06,01,40,5.60
2020,12,06,01,41,5.60
2020,12,06,01,42,5.60
2020,12,06,01,43,5.60
2020,12,06,01,44,5.60
2020,12,06,01,45,5.60
2020,12,06,01,46,5.60
2020,12,06,01,47,5.60
2020,12,06,01,48,5.50
2020,12,06,01,49,5.50
2020,12,06,01,50,5.50
2020,12,06,01,51,5.50
2020,12,06,01,52,5.50
2020,12,06,01,53,5.50
2020,12,06,01,54,5.50
2020,12,06,01,55,5.60
2020,12,06,01,56,5.60
2020,12,06,01,57,5.60
2020,12,06,01,58,5.60
2020,12,06,01,59,5.60
2020,12,06,02,00,5.50
2020,12,06,02,01,5.50
2020,12,06,02,02,5.50
2020,12,06,02,03,5.50
2020,12,06,02,04,5.50
2020,12,06,02,05,5.50
2020,12,06,02,06,5.50
2020,12,06,02,07,5.50
2020,12,06,02,08,5.50
2020,12,06,02,09,5.50
2020,12,06,02,10,5.50
2020,12,06,02,11,5.50
2020,12,06,02,12,5.40
2020,12,06,02,13,5.40
2020,12,06,02,14,5.40
2020,12,06,02,15,5.30
2020,12,06,02,16,5.30
2020,12,06,02,17,5.30
2020,12,06,02,18,5.30
2020,12,06,02,19,5.30
2020,12,06,02,20,5.30
2020,12,06,02,21,5.30
2020,12,06,02,22,5.30
2020,12,06,02,23,5.30
2020,12,06,02,24,5.30
2020,12,06,02,25,5.40
2020,12,06,02,26,5.40
2020,12,06,02,27,5.50
2020,12,06,02,28,5.50
2020,12,06,02,29,5.50
2020,12,06,02,30,5.60
2020,12,06,02,31,5.60
2020,12,06,02,32,5.70
2020,12,06,02,33,5.70
2020,12,06,02,34,5.70
2020,12,06,02,35,5.70
2020,12,06,02,36,5.80
2020,12,06,02,37,5.80
2020,12,06,02,38,5.80
2020,12,06,02,39,5.80
2020,12,06,02,40,5.80
2020,12,06,02,41,5.80
2020,12,06,02,42,5.80
2020,12,06,02,43,5.80
2020,12,06,02,44,5.90
2020,12,06,02,45,5.90
2020,12,06,02,46,5.90
2020,12,06,02,47,5.90
2020,12,06,02,48,5.90
2020,12,06,02,49,5.90
2020,12,06,02,50,5.90
2020,12,06,02,51,5.90
2020,12,06,02,52,5.90
2020,12,06,02,53,5.90
2020,12,06,02,54,5.90
2020,12,06,02,55,5.90
2020,12,06,02,56,5.90
2020,12,06,02,57,5.90
2020,12,06,02,58,5.90
2020,12,06,02,59,5.90
2020,12,06,03,00,5.90
2020,12,06,03,01,5.90
2020,12,06,03,02,5.90
2020,12,06,03,03,5.90
2020,12,06,03,04,5.90
2020,12,06,03,05,5.90
2020,12,06,03,06,5.90
2020,12,06,03,07,5.90
2020,12,06,03,08,5.90
2020,12,06,03,09,5.90
2020,12,06,03,10,5.90
2020,12,06,03,11,5.90
2020,12,06,03,12,5.90
2020,12,06,03,13,6.00
2020,12,06,03,14,6.00
2020,12,06,03,15,6.00
2020,12,06,03,16,6.00
2020,12,06,03,17,6.00
2020,12,06,03,18,6.00
2020,12,06,03,19,6.00
2020,12,06,03,20,6.00
2020,12,06,03,21,6.00
2020,12,06,03,22,6.10
2020,12,06,03,23,6.00
2020,12,06,03,24,6.00
2020,12,06,03,25,6.10
2020,12,06,03,26,6.00
2020,12,06,03,27,6.00
2020,12,06,03,28,6.00
2020,12,06,03,29,6.10
2020,12,06,03,30,6.00
2020,12,06,03,31,6.00
2020,12,06,03,32,6.00
2020,12,06,03,33,6.10
2020,12,06,03,34,6.10
2020,12,06,03,35,6.10
2020,12,06,03,36,6.00
2020,12,06,03,37,6.10
2020,12,06,03,38,6.10
2020,12,06,03,39,6.10
2020,12,06,03,40,6.10
2020,12,06,03,41,6.10
2020,12,06,03,42,6.10
2020,12,06,03,43,6.10
2020,12,06,03,44,6.10
2020,12,06,03,45,6.10
2020,12,06,03,46,6.10
2020,12,06,03,47,6.10
2020,12,06,03,48,6.10
2020,12,06,03,49,6.10
2020,12,06,03,50,6.10
2020,12,06,03,51,6.00
2020,12,06,03,52,6.00
2020,12,06,03,53,6.00
2020,12,06,03,54,6.00
2020,12,06,03,55,6.00
2020,12,06,03,56,6.10
2020,12,06,03,57,6.10
2020,12,06,03,58,6.10
2020,12,06,03,59,6.10
2020,12,06,04,00,6.10
2020,12,06,04,01,6.10
2020,12,06,04,02,6.10
2020,12,06,04,03,6.10
2020,12,06,04,04,6.10
2020,12,06,04,05,6.10
2020,12,06,04,06,6.10
2020,12,06,04,07,6.10
2020,12,06,04,08,6.10
2020,12,06,04,09,6.10
2020,12,06,04,10,6.10
2020,12,06,04,11,6.20
2020,12,06,04,12,6.20
2020,12,06,04,13,6.20
2020,12,06,04,14,6.20
2020,12,06,04,15,6.20
2020,12,06,04,16,6.20
2020,12,06,04,17,6.20
2020,12,06,04,18,6.20
2020,12,06,04,19,6.20
2020,12,06,04,20,6.20
2020,12,06,04,21,6.20
2020,12,06,04,22,6.20
2020,12,06,04,23,6.20
2020,12,06,04,24,6.30
2020,12,06,04,25,6.30
2020,12,06,04,26,6.30
2020,12,06,04,27,6.30
2020,12,06,04,28,6.40
2020,12,06,04,29,6.40
2020,12,06,04,30,6.40
2020,12,06,04,31,6.40
2020,12,06,04,32,6.40
2020,12,06,04,33,6.50
2020,12,06,04,34,6.50
2020,12,06,04,35,6.50
2020,12,06,04,36,6.50
2020,12,06,04,37,6.60
2020,12,06,04,38,6.60
2020,12,06,04,39,6.60
2020,12,06,04,40,6.60
2020,12,06,04,41,6.60
2020,12,06,04,42,6.60
2020,12,06,04,43,6.60
2020,12,06,04,44,6.60
2020,12,06,04,45,6.70
2020,12,06,04,46,6.70
2020,12,06,04,47,6.70
2020,12,06,04,48,6.70
2020,12,06,04,49,6.70
2020,12,06,04,50,6.80
2020,12,06,04,51,6.80
2020,12,06,04,52,6.70
2020,12,06,04,53,6.70
2020,12,06,04,54,6.70
2020,12,06,04,55,6.70
2020,12,06,04,56,6.70
2020,12,06,04,57,6.70
2020,12,06,04,58,6.70
2020,12,06,04,59,6.80
2020,12,06,05,00,6.80
2020,12,06,05,01,6.70
2020,12,06,05,02,6.70
2020,12,06,05,03,6.70
2020,12,06,05,04,6.70
2020,12,06,05,05,6.70
2020,12,06,05,06,6.70
2020,12,06,05,07,6.70
2020,12,06,05,08,6.60
2020,12,06,05,09,6.60
2020,12,06,05,10,6.50
2020,12,06,05,11,6.50
2020,12,06,05,12,6.50
2020,12,06,05,13,6.40
2020,12,06,05,14,6.40
2020,12,06,05,15,6.40
2020,12,06,05,16,6.40
2020,12,06,05,17,6.40
2020,12,06,05,18,6.40
2020,12,06,05,19,6.40
2020,12,06,05,20,6.30
2020,12,06,05,21,6.30
2020,12,06,05,22,6.30
2020,12,06,05,23,6.30
2020,12,06,05,24,6.30
2020,12,06,05,25,6.30
2020,12,06,05,26,6.30
2020,12,06,05,27,6.30
2020,12,06,05,28,6.20
2020,12,06,05,29,6.20
2020,12,06,05,30,6.20
2020,12,06,05,31,6.20
2020,12,06,05,32,6.20
2020,12,06,05,33,6.20
2020,12,06,05,34,6.20
2020,12,06,05,35,6.20
2020,12,06,05,36,6.20
2020,12,06,05,37,6.20
2020,12,06,05,38,6.20
2020,12,06,05,39,6.20
2020,12,06,05,40,6.20
2020,12,06,05,41,6.10
2020,12,06,05,42,6.10
2020,12,06,05,43,6.10
2020,12,06,05,44,6.10
2020,12,06,05,45,6.10
2020,12,06,05,46,6.10
2020,12,06,05,47,6.10
2020,12,06,05,48,6.10
2020,12,06,05,49,6.10
2020,12,06,05,50,6.10
2020,12,06,05,51,6.10
2020,12,06,05,52,6.10
2020,12,06,05,53,6.20
2020,12,06,05,54,6.20
2020,12,06,05,55,6.20
2020,12,06,05,56,6.20
2020,12,06,05,57,6.20
2020,12,06,05,58,6.20
2020,12,06,05,59,6.20
2020,12,06,06,00,6.20
2020,12,06,06,01,6.20
2020,12,06,06,02,6.20
2020,12,06,06,03,6.20
2020,12,06,06,04,6.20
2020,12,06,06,05,6.20
2020,12,06,06,06,6.20
2020,12,06,06,07,6.20
2020,12,06,06,08,6.20
2020,12,06,06,09,6.20
2020,12,06,06,10,6.30
2020,12,06,06,11,6.30
2020,12,06,06,12,6.30
2020,12,06,06,13,6.30
2020,12,06,06,14,6.30
2020,12,06,06,15,6.30
2020,12,06,06,16,6.30
2020,12,06,06,17,6.30
2020,12,06,06,18,6.30
2020,12,06,06,19,6.30
2020,12,06,06,20,6.30
2020,12,06,06,21,6.30
2020,12,06,06,22,6.30
2020,12,06,06,23,6.30
2020,12,06,06,24,6.40
2020,12,06,06,25,6.50
2020,12,06,06,26,6.70
2020,12,06,06,27,6.80
2020,12,06,06,28,6.90
2020,12,06,06,29,7.10
2020,12,06,06,30,7.20
2020,12,06,06,31,7.30
2020,12,06,06,32,7.30
2020,12,06,06,33,7.40
2020,12,06,06,34,7.60
2020,12,06,06,35,7.70
2020,12,06,06,36,7.90
2020,12,06,06,37,8.00
2020,12,06,06,38,8.20
2020,12,06,06,39,8.30
2020,12,06,06,40,8.40
2020,12,06,06,41,8.50
2020,12,06,06,42,8.70
2020,12,06,06,43,8.70
2020,12,06,06,44,8.70
2020,12,06,06,45,8.80
2020,12,06,06,46,8.70
2020,12,06,06,47,8.80
2020,12,06,06,48,8.80
2020,12,06,06,49,8.80
2020,12,06,06,50,8.80
2020,12,06,06,51,8.80
2020,12,06,06,52,8.80
2020,12,06,06,53,8.80
2020,12,06,06,54,8.70
2020,12,06,06,55,8.50
2020,12,06,06,56,8.40
2020,12,06,06,57,8.30
2020,12,06,06,58,8.20
2020,12,06,06,59,8.10
2020,12,06,07,00,8.00
2020,12,06,07,01,7.90
2020,12,06,07,02,7.80
2020,12,06,07,03,7.80
2020,12,06,07,04,7.70
2020,12,06,07,05,7.70
2020,12,06,07,06,7.70
2020,12,06,07,07,7.60
2020,12,06,07,08,7.60
2020,12,06,07,09,7.50
2020,12,06,07,10,7.50
2020,12,06,07,11,7.40
2020,12,06,07,12,7.30
2020,12,06,07,13,7.30
2020,12,06,07,14,7.30
2020,12,06,07,15,7.20
2020,12,06,07,16,7.20
2020,12,06,07,17,7.20
2020,12,06,07,18,7.10
2020,12,06,07,19,7.10
2020,12,06,07,20,7.00
2020,12,06,07,21,7.00
2020,12,06,07,22,7.00
2020,12,06,07,23,7.00
2020,12,06,07,24,6.90
2020,12,06,07,25,6.90
2020,12,06,07,26,6.90
2020,12,06,07,27,6.80
2020,12,06,07,28,6.80
2020,12,06,07,29,6.80
2020,12,06,07,30,6.80
2020,12,06,07,31,6.80
2020,12,06,07,32,6.80
2020,12,06,07,33,6.70
2020,12,06,07,34,6.70
2020,12,06,07,35,6.70
2020,12,06,07,36,6.70
2020,12,06,07,37,6.70
2020,12,06,07,38,6.70
2020,12,06,07,39,6.60
2020,12,06,07,40,6.60
2020,12,06,07,41,6.60
2020,12,06,07,42,6.50
2020,12,06,07,43,6.50
2020,12,06,07,44,6.40
2020,12,06,07,45,6.40
2020,12,06,07,46,6.40
2020,12,06,07,47,6.40
2020,12,06,07,48,6.40
2020,12,06,07,49,6.30
2020,12,06,07,50,6.30
2020,12,06,07,51,6.30
2020,12,06,07,52,6.30
2020,12,06,07,53,6.30
2020,12,06,07,54,6.30
2020,12,06,07,55,6.30
2020,12,06,07,56,6.30
2020,12,06,07,57,6.30
2020,12,06,07,58,6.30
2020,12,06,07,59,6.30
2020,12,06,08,00,6.30
2020,12,06,08,01,6.30
2020,12,06,08,02,6.20
2020,12,06,08,03,6.20
2020,12,06,08,04,6.20
2020,12,06,08,05,6.20
2020,12,06,08,06,6.20
2020,12,06,08,07,6.20
2020,12,06,08,08,6.20
2020,12,06,08,09,6.30
2020,12,06,08,10,6.30
2020,12,06,08,11,6.30
2020,12,06,08,12,6.40
2020,12,06,08,13,6.40
2020,12,06,08,14,6.50
2020,12,06,08,15,6.50
2020,12,06,08,16,6.60
2020,12,06,08,17,6.60
2020,12,06,08,18,6.50
2020,12,06,08,19,6.50
2020,12,06,08,20,6.50
2020,12,06,08,21,6.50
2020,12,06,08,22,6.50
2020,12,06,08,23,6.40
2020,12,06,08,24,6.40
2020,12,06,08,25,6.40
2020,12,06,08,26,6.40
2020,12,06,08,27,6.40
2020,12,06,08,28,6.40
2020,12,06,08,29,6.30
2020,12,06,08,30,6.30
2020,12,06,08,31,6.30
2020,12,06,08,32,6.30
2020,12,06,08,33,6.30
2020,12,06,08,34,6.30
2020,12,06,08,35,6.30
2020,12,06,08,36,6.30
2020,12,06,08,37,6.30
2020,12,06,08,38,6.30
2020,12,06,08,39,6.30
2020,12,06,08,40,6.30
2020,12,06,08,41,6.30
2020,12,06,08,42,6.30
2020,12,06,08,43,6.30
2020,12,06,08,44,6.30
2020,12,06,08,45,6.30
2020,12,06,08,46,6.30
2020,12,06,08,47,6.30
2020,12,06,08,48,6.30
2020,12,06,08,49,6.30
2020,12,06,08,50,6.30
2020,12,06,08,51,6.30
2020,12,06,08,52,6.40
2020,12,06,08,53,6.40
2020,12,06,08,54,6.40
2020,12,06,08,55,6.40
2020,12,06,08,56,6.50
2020,12,06,08,57,6.50
2020,12,06,08,58,6.50
2020,12,06,08,59,6.50
2020,12,06,09,00,6.60
2020,12,06,09,01,6.60
2020,12,06,09,02,6.60
2020,12,06,09,03,6.50
2020,12,06,09,04,6.50
2020,12,06,09,05,6.50
2020,12,06,09,06,6.50
2020,12,06,09,07,6.50
2020,12,06,09,08,6.50
2020,12,06,09,09,6.50
2020,12,06,09,10,6.40
2020,12,06,09,11,6.40
2020,12,06,09,12,6.40
2020,12,06,09,13,6.40
2020,12,06,09,14,6.40
2020,12,06,09,15,6.40
2020,12,06,09,16,6.40
2020,12,06,09,17,6.40
2020,12,06,09,18,6.40
2020,12,06,09,19,6.40
2020,12,06,09,20,6.40
2020,12,06,09,21,6.40
2020,12,06,09,22,6.40
2020,12,06,09,23,6.40
2020,12,06,09,24,6.40
2020,12,06,09,25,6.40
2020,12,06,09,26,6.40
2020,12,06,09,27,6.40
2020,12,06,09,28,6.40
2020,12,06,09,29,6.40
2020,12,06,09,30,6.40
2020,12,06,09,31,6.40
2020,12,06,09,32,6.40
2020,12,06,09,33,6.50
2020,12,06,09,34,6.50
2020,12,06,09,35,6.50
2020,12,06,09,36,6.50
2020,12,06,09,37,6.50
2020,12,06,09,38,6.50
2020,12,06,09,39,6.50
2020,12,06,09,40,6.60
2020,12,06,09,41,6.60
2020,12,06,09,42,6.60
2020,12,06,09,43,6.70
2020,12,06,09,44,6.80
2020,12,06,09,45,6.90
2020,12,06,09,46,7.10
2020,12,06,09,47,7.20
2020,12,06,09,48,7.30
2020,12,06,09,49,7.30
2020,12,06,09,50,7.40
2020,12,06,09,51,7.40
2020,12,06,09,52,7.50
2020,12,06,09,53,7.50
2020,12,06,09,54,7.60
2020,12,06,09,55,7.60
2020,12,06,09,56,7.60
2020,12,06,09,57,7.60
2020,12,06,09,58,7.70
2020,12,06,09,59,7.70
2020,12,06,10,00,7.70
2020,12,06,10,01,7.80
2020,12,06,10,02,7.80
2020,12,06,10,03,7.80
2020,12,06,10,04,7.80
2020,12,06,10,05,7.80
2020,12,06,10,06,7.90
2020,12,06,10,07,7.90
2020,12,06,10,08,7.90
2020,12,06,10,09,8.00
2020,12,06,10,10,8.00
2020,12,06,10,11,8.00
2020,12,06,10,12,8.10
2020,12,06,10,13,8.10
2020,12,06,10,14,8.10
2020,12,06,10,15,8.10
2020,12,06,10,16,8.20
2020,12,06,10,17,8.20
2020,12,06,10,18,8.20
2020,12,06,10,19,8.20
2020,12,06,10,20,8.20
2020,12,06,10,21,8.20
2020,12,06,10,22,8.20
2020,12,06,10,23,8.30
2020,12,06,10,24,8.30
2020,12,06,10,25,8.30
2020,12,06,10,26,8.30
2020,12,06,10,27,8.30
2020,12,06,10,28,8.30
2020,12,06,10,29,8.40
2020,12,06,10,30,8.40
2020,12,06,10,31,8.40
2020,12,06,10,32,8.40
2020,12,06,10,33,8.40
2020,12,06,10,34,8.40
2020,12,06,10,35,8.40
2020,12,06,10,36,8.40
2020,12,06,10,37,8.50
2020,12,06,10,38,8.50
2020,12,06,10,39,8.50
2020,12,06,10,40,8.50
2020,12,06,10,41,8.60
2020,12,06,10,42,8.60
2020,12,06,10,43,8.60
2020,12,06,10,44,8.70
2020,12,06,10,45,8.70
2020,12,06,10,46,8.70
2020,12,06,10,47,8.70
2020,12,06,10,48,8.70
2020,12,06,10,49,8.80
2020,12,06,10,50,8.80
2020,12,06,10,51,8.80
2020,12,06,10,52,8.80
2020,12,06,10,53,8.80
2020,12,06,10,54,8.90
2020,12,06,10,55,8.90
2020,12,06,10,56,8.90
2020,12,06,10,57,8.90
2020,12,06,10,58,8.90
2020,12,06,10,59,8.90
2020,12,06,11,00,9.00
2020,12,06,11,01,9.00
2020,12,06,11,02,9.00
2020,12,06,11,03,9.00
2020,12,06,11,04,9.00
2020,12,06,11,05,9.10
2020,12,06,11,06,9.10
2020,12,06,11,07,9.10
2020,12,06,11,08,9.10
2020,12,06,11,09,9.10
2020,12,06,11,10,9.10
2020,12,06,11,11,9.10
2020,12,06,11,12,9.10
2020,12,06,11,13,9.10
2020,12,06,11,14,9.10
2020,12,06,11,15,9.10
2020,12,06,11,16,9.10
2020,12,06,11,17,9.10
2020,12,06,11,18,9.10
2020,12,06,11,19,9.10
2020,12,06,11,20,9.10
2020,12,06,11,21,9.10
2020,12,06,11,22,9.20
2020,12,06,11,23,9.20
2020,12,06,11,24,9.20
2020,12,06,11,25,9.20
2020,12,06,11,26,9.20
2020,12,06,11,27,9.20
2020,12,06,11,28,9.20
2020,12,06,11,29,9.30
2020,12,06,11,30,9.30
2020,12,06,11,31,9.30
2020,12,06,11,32,9.30
2020,12,06,11,33,9.30
2020,12,06,11,34,9.30
2020,12,06,11,35,9.30
2020,12,06,11,36,9.40
2020,12,06,11,37,9.40
2020,12,06,11,38,9.40
2020,12,06,11,39,9.40
2020,12,06,11,40,9.40
2020,12,06,11,41,9.40
2020,12,06,11,42,9.40
2020,12,06,11,43,9.40
2020,12,06,11,44,9.40
2020,12,06,11,45,9.40
2020,12,06,11,46,9.50
2020,12,06,11,47,9.50
2020,12,06,11,48,9.50
2020,12,06,11,49,9.50
2020,12,06,11,50,9.60
2020,12,06,11,51,9.60
2020,12,06,11,52,9.60
2020,12,06,11,53,9.60
2020,12,06,11,54,9.60
2020,12,06,11,55,9.60
2020,12,06,11,56,9.60
2020,12,06,11,57,9.60
2020,12,06,11,58,9.60
2020,12,06,11,59,9.60
2020,12,06,12,00,9.70
2020,12,06,12,01,9.70
2020,12,06,12,02,9.70
2020,12,06,12,03,9.70
2020,12,06,12,04,9.70
2020,12,06,12,05,9.70
2020,12,06,12,06,9.70
2020,12,06,12,07,9.70
2020,12,06,12,08,9.70
2020,12,06,12,09,9.70
2020,12,06,12,10,9.70
2020,12,06,12,11,9.70
2020,12,06,12,12,9.70
2020,12,06,12,13,9.70
2020,12,06,12,14,9.70
2020,12,06,12,15,9.70
2020,12,06,12,16,9.70
2020,12,06,12,17,9.80
2020,12,06,12,18,9.80
2020,12,06,12,19,9.80
2020,12,06,12,20,9.80
2020,12,06,12,21,9.70
2020,12,06,12,22,9.70
2020,12,06,12,23,9.70
2020,12,06,12,24,9.70
2020,12,06,12,25,9.70
2020,12,06,12,26,9.80
2020,12,06,12,27,9.80
2020,12,06,12,28,9.80
2020,12,06,12,29,9.80
2020,12,06,12,30,9.80
2020,12,06,12,31,9.80
2020,12,06,12,32,9.80
2020,12,06,12,33,9.80
2020,12,06,12,34,9.80
2020,12,06,12,35,9.80
2020,12,06,12,36,9.80
2020,12,06,12,37,9.80
2020,12,06,12,38,9.80
2020,12,06,12,39,9.80
2020,12,06,12,40,9.80
2020,12,06,12,41,9.80
2020,12,06,12,42,9.80
2020,12,06,12,43,9.80
2020,12,06,12,44,9.80
2020,12,06,12,45,9.80
2020,12,06,12,46,9.80
2020,12,06,12,47,9.80
2020,12,06,12,48,9.80
2020,12,06,12,49,9.80
2020,12,06,12,50,9.80
2020,12,06,12,51,9.80
2020,12,06,12,52,9.80
2020,12,06,12,53,9.80
2020,12,06,12,54,9.80
2020,12,06,12,55,9.80
2020,12,06,12,56,9.80
2020,12,06,12,57,9.80
2020,12,06,12,58,9.80
2020,12,06,12,59,9.80
2020,12,06,13,00,9.90
2020,12,06,13,01,9.90
2020,12,06,13,02,9.90
2020,12,06,13,03,9.90
2020,12,06,13,04,9.90
2020,12,06,13,05,9.90
2020,12,06,13,06,9.90
2020,12,06,13,07,9.90
2020,12,06,13,08,9.90
2020,12,06,13,09,9.90
2020,12,06,13,10,9.90
2020,12,06,13,11,9.80
2020,12,06,13,12,9.80
2020,12,06,13,13,9.80
2020,12,06,13,14,9.80
2020,12,06,13,15,9.80
2020,12,06,13,16,9.80
2020,12,06,13,17,9.80
2020,12,06,13,18,9.80
2020,12,06,13,19,9.80
2020,12,06,13,20,9.80
2020,12,06,13,21,9.80
2020,12,06,13,22,9.80
2020,12,06,13,23,9.80
2020,12,06,13,24,9.80
2020,12,06,13,25,9.80
2020,12,06,13,26,9.70
2020,12,06,13,27,9.70
2020,12,06,13,28,9.70
2020,12,06,13,29,9.70
2020,12,06,13,30,9.70
2020,12,06,13,31,9.70
2020,12,06,13,32,9.70
2020,12,06,13,33,9.70
2020,12,06,13,34,9.70
2020,12,06,13,35,9.70
2020,12,06,13,36,9.70
2020,12,06,13,37,9.70
2020,12,06,13,38,9.70
2020,12,06,13,39,9.70
2020,12,06,13,40,9.70
2020,12,06,13,41,9.70
2020,12,06,13,42,9.70
2020,12,06,13,43,9.70
2020,12,06,13,44,9.70
2020,12,06,13,45,9.70
2020,12,06,13,46,9.70
2020,12,06,13,47,9.70
2020,12,06,13,48,9.70
2020,12,06,13,49,9.80
2020,12,06,13,50,9.80
2020,12,06,13,51,9.80
2020,12,06,13,52,9.80
2020,12,06,13,53,9.80
2020,12,06,13,54,9.80
2020,12,06,13,55,9.80
2020,12,06,13,56,9.80
2020,12,06,13,57,9.80
2020,12,06,13,58,9.80
2020,12,06,13,59,9.80
2020,12,06,14,00,9.80
2020,12,06,14,01,9.70
2020,12,06,14,02,9.80
2020,12,06,14,03,9.80
2020,12,06,14,04,9.70
2020,12,06,14,05,9.80
2020,12,06,14,06,9.70
2020,12,06,14,07,9.70
2020,12,06,14,08,9.70
2020,12,06,14,09,9.70
2020,12,06,14,10,9.70
2020,12,06,14,11,9.80
2020,12,06,14,12,9.80
2020,12,06,14,13,9.80
2020,12,06,14,14,9.80
2020,12,06,14,15,9.80
2020,12,06,14,16,9.80
2020,12,06,14,17,9.80
2020,12,06,14,18,9.80
2020,12,06,14,19,9.80
2020,12,06,14,20,9.70
2020,12,06,14,21,9.70
2020,12,06,14,22,9.70
2020,12,06,14,23,9.70
2020,12,06,14,24,9.70
2020,12,06,14,25,9.70
2020,12,06,14,26,9.70
2020,12,06,14,27,9.70
2020,12,06,14,28,9.70
2020,12,06,14,29,9.70
2020,12,06,14,30,9.70
2020,12,06,14,31,9.70
2020,12,06,14,32,9.70
2020,12,06,14,33,9.70
2020,12,06,14,34,9.70
2020,12,06,14,35,9.70
2020,12,06,14,36,9.70
2020,12,06,14,37,9.70
2020,12,06,14,38,9.70
2020,12,06,14,39,9.70
2020,12,06,14,40,9.70
2020,12,06,14,41,9.70
2020,12,06,14,42,9.70
2020,12,06,14,43,9.70
2020,12,06,14,44,9.70
2020,12,06,14,45,9.70
2020,12,06,14,46,9.70
2020,12,06,14,47,9.70
2020,12,06,14,48,9.70
2020,12,06,14,49,9.70
2020,12,06,14,50,9.70
2020,12,06,14,51,9.60
2020,12,06,14,52,9.60
2020,12,06,14,53,9.60
2020,12,06,14,54,9.60
2020,12,06,14,55,9.60
2020,12,06,14,56,9.60
2020,12,06,14,57,9.60
2020,12,06,14,58,9.60
2020,12,06,14,59,9.60
2020,12,06,15,00,9.60
2020,12,06,15,01,9.60
2020,12,06,15,02,9.60
2020,12,06,15,03,9.60
2020,12,06,15,04,9.60
2020,12,06,15,05,9.60
2020,12,06,15,06,9.60
2020,12,06,15,07,9.60
2020,12,06,15,08,9.60
2020,12,06,15,09,9.50
2020,12,06,15,10,9.60
2020,12,06,15,11,9.60
2020,12,06,15,12,9.60
2020,12,06,15,13,9.60
2020,12,06,15,14,9.60
2020,12,06,15,15,9.60
2020,12,06,15,16,9.60
2020,12,06,15,17,9.60
2020,12,06,15,18,9.60
2020,12,06,15,19,9.60
2020,12,06,15,20,9.60
2020,12,06,15,21,9.60
2020,12,06,15,22,9.60
2020,12,06,15,23,9.60
2020,12,06,15,24,9.60
2020,12,06,15,25,9.60
2020,12,06,15,26,9.60
2020,12,06,15,27,9.60
2020,12,06,15,28,9.60
2020,12,06,15,29,9.60
2020,12,06,15,30,9.60
2020,12,06,15,31,9.60
2020,12,06,15,32,9.60
2020,12,06,15,33,9.60
2020,12,06,15,34,9.60
2020,12,06,15,35,9.60
2020,12,06,15,36,9.60
2020,12,06,15,37,9.60
2020,12,06,15,38,9.60
2020,12,06,15,39,9.60
2020,12,06,15,40,9.60
2020,12,06,15,41,9.60
2020,12,06,15,42,9.60
2020,12,06,15,43,9.50
2020,12,06,15,44,9.50
2020,12,06,15,45,9.50
2020,12,06,15,46,9.50
2020,12,06,15,47,9.50
2020,12,06,15,48,9.50
2020,12,06,15,49,9.50
2020,12,06,15,50,9.50
2020,12,06,15,51,9.50
2020,12,06,15,52,9.50
2020,12,06,15,53,9.50
2020,12,06,15,54,9.50
2020,12,06,15,55,9.50
2020,12,06,15,56,9.50
2020,12,06,15,57,9.50
2020,12,06,15,58,9.50
2020,12,06,15,59,9.40
2020,12,06,16,00,9.40
2020,12,06,16,01,9.40
2020,12,06,16,02,9.40
2020,12,06,16,03,9.40
2020,12,06,16,04,9.40
2020,12,06,16,05,9.40
2020,12,06,16,06,9.40
2020,12,06,16,07,9.40
2020,12,06,16,08,9.40
2020,12,06,16,09,9.40
2020,12,06,16,10,9.40
2020,12,06,16,11,9.40
2020,12,06,16,12,9.40
2020,12,06,16,13,9.40
2020,12,06,16,14,9.40
2020,12,06,16,15,9.40
2020,12,06,16,16,9.40
2020,12,06,16,17,9.30
2020,12,06,16,18,9.30
2020,12,06,16,19,9.30
2020,12,06,16,20,9.30
2020,12,06,16,21,9.30
2020,12,06,16,22,9.30
2020,12,06,16,23,9.30
2020,12,06,16,24,9.30
2020,12,06,16,25,9.30
2020,12,06,16,26,9.30
2020,12,06,16,27,9.30
2020,12,06,16,28,9.20
2020,12,06,16,29,9.20
2020,12,06,16,30,9.20
2020,12,06,16,31,9.20
2020,12,06,16,32,9.20
2020,12,06,16,33,9.20
2020,12,06,16,34,9.20
2020,12,06,16,35,9.20
2020,12,06,16,36,9.10
2020,12,06,16,37,9.10
2020,12,06,16,38,9.10
2020,12,06,16,39,9.10
2020,12,06,16,40,9.10
2020,12,06,16,41,9.10
2020,12,06,16,42,9.10
2020,12,06,16,43,9.00
2020,12,06,16,44,9.00
2020,12,06,16,45,9.00
2020,12,06,16,46,8.90
2020,12,06,16,47,8.90
2020,12,06,16,48,8.90
2020,12,06,16,49,8.90
2020,12,06,16,50,8.80
2020,12,06,16,51,8.80
2020,12,06,16,52,8.80
2020,12,06,16,53,8.80
2020,12,06,16,54,8.80
2020,12,06,16,55,8.80
2020,12,06,16,56,8.80
2020,12,06,16,57,8.80
2020,12,06,16,58,8.80
2020,12,06,16,59,8.80
2020,12,06,17,00,8.80
2020,12,06,17,01,8.80
2020,12,06,17,02,8.80
2020,12,06,17,03,8.80
2020,12,06,17,04,8.80
2020,12,06,17,05,8.70
2020,12,06,17,06,8.70
2020,12,06,17,07,8.70
2020,12,06,17,08,8.70
2020,12,06,17,09,8.70
2020,12,06,17,10,8.70
2020,12,06,17,11,8.70
2020,12,06,17,12,8.70
2020,12,06,17,13,8.60
2020,12,06,17,14,8.60
2020,12,06,17,15,8.60
2020,12,06,17,16,8.60
2020,12,06,17,17,8.60
2020,12,06,17,18,8.60
2020,12,06,17,19,8.60
2020,12,06,17,20,8.60
2020,12,06,17,21,8.50
2020,12,06,17,22,8.50
2020,12,06,17,23,8.50
2020,12,06,17,24,8.50
2020,12,06,17,25,8.50
2020,12,06,17,26,8.50
2020,12,06,17,27,8.50
2020,12,06,17,28,8.50
2020,12,06,17,29,8.50
2020,12,06,17,30,8.50
2020,12,06,17,31,8.50
2020,12,06,17,32,8.50
2020,12,06,17,33,8.50
2020,12,06,17,34,8.40
2020,12,06,17,35,8.40
2020,12,06,17,36,8.40
2020,12,06,17,37,8.40
2020,12,06,17,38,8.40
2020,12,06,17,39,8.40
2020,12,06,17,40,8.40
2020,12,06,17,41,8.40
2020,12,06,17,42,8.40
2020,12,06,17,43,8.40
2020,12,06,17,44,8.40
2020,12,06,17,45,8.40
2020,12,06,17,46,8.40
2020,12,06,17,47,8.40
2020,12,06,17,48,8.30
2020,12,06,17,49,8.30
2020,12,06,17,50,8.30
2020,12,06,17,51,8.30
2020,12,06,17,52,8.30
2020,12,06,17,53,8.30
2020,12,06,17,54,8.30
2020,12,06,17,55,8.30
2020,12,06,17,56,8.30
2020,12,06,17,57,8.30
2020,12,06,17,58,8.30
2020,12,06,17,59,8.30
2020,12,06,18,00,8.30
2020,12,06,18,01,8.30
2020,12,06,18,02,8.30
2020,12,06,18,03,8.30
2020,12,06,18,04,8.20
2020,12,06,18,05,8.20
2020,12,06,18,06,8.20